Retour au catalogue

QIANFAN-176

ActifCommunicationsPO
NORAD 69393·PAYLOAD·🇨🇳 China

Lancé Jun 4, 2026 depuis Taiyuan Satellite Launch Center

Loading…

Prochains Passages (prochaines 24 heures)

TLE

FraisSource: Space-Track

Époque: Sep 14, 2026, 21:04 UTC

1 69393U 26124M   26257.87800347  .00000130  00000-0  18260-3 0  9998
2 69393  89.0057 352.5377 0001848 101.1743 258.9616 13.51020357 14167

Suivez QIANFAN-176 en temps réel avec AllMySat

Download on the App Store